Wind_Speed
5 7 7 7 7 6 6 6 6 6 6 6 6 7 7 7 6 6 6 5 5 5 5 5 4 4 4 3 3 3 3 3 3 3 3 3 4 4 4 4 5 5 6
4 6 6 7 7 6 6 6 6 6 6 6 6 6 6 6 6 6 5 5 5 5 5 4 4 4 3 3 2 2 2 2 3 3 3 3 3 4 4 5 6 5 6
3 4 5 6 6 6 6 6 6 6 6 6 6 6 6 6 5 5 5 5 5 5 4 4 4 3 3 3 2 2 2 2 2 3 2 3 3 4 5 5 5 5 5
3 4 4 5 6 6 6 6 6 6 6 6 6 6 6 5 5 5 5 5 5 5 4 4 4 3 3 2 2 2 2 1 2 2 2 3 3 4 4 4 5 4 4
3 5 5 6 6 6 6 7 6 7 7 6 6 5 5 5 5 5 5 5 5 4 4 4 3 3 3 2 2 2 1 1 1 2 2 2 3 3 3 4 4 4 4
3 4 5 6 7 7 7 7 7 7 7 6 6 6 5 5 4 4 4 4 4 4 3 3 3 3 3 2 2 2 2 2 1 1 1 2 2 3 3 3 3 3 3
3 5 5 7 8 8 8 8 7 7 7 6 6 5 5 4 4 4 4 4 3 3 3 3 3 3 3 2 2 2 2 2 2 1 1 2 2 2 2 2 2 3 2
4 5 5 7 8 9 9 9 8 8 8 7 7 6 5 4 4 4 4 4 3 3 3 3 3 3 3 2 2 2 2 2 2 1 1 1 1 1 2 2 2 3 2
5 5 6 7 9 10 10 10 9 9 9 8 7 6 6 5 4 4 4 3 3 3 3 3 3 3 3 2 2 2 2 2 2 1 1 1 1 1 1 1 1 2 3
5 5 6 7 8 10 11 11 10 10 9 9 9 8 7 6 5 5 4 4 3 3 3 3 3 3 2 2 2 2 2 1 1 1 1 1 1 1 1 1 2 2 3
6 5 6 7 8 10 11 12 12 11 11 10 10 9 8 7 6 5 4 4 3 3 3 3 3 2 2 2 2 1 1 2 1 1 1 1 2 2 2 2 2 2 3
8 8 7 8 8 9 11 12 12 12 12 11 11 10 9 8 7 6 5 4 3 3 3 2 2 2 2 2 2 1 1 2 1 1 1 1 2 2 2 2 2 2 3
10 8 8 8 7 8 10 13 13 13 12 12 11 11 10 9 8 7 6 5 4 3 2 2 3 2 2 2 1 1 1 1 1 2 2 2 2 3 3 3 3 3 3
11 10 8 7 7 8 10 13 14 14 13 13 12 11 11 9 8 7 7 6 4 3 2 2 2 3 3 2 2 2 1 1 1 2 2 2 2 2 3 3 3 4 4
13 10 9 7 8 9 11 13 15 14 13 13 12 12 11 10 9 8 7 6 5 4 3 2 2 3 3 3 3 2 2 2 2 3 3 2 2 3 3 4 4 4 4
14 11 10 8 9 9 10 12 14 15 13 13 13 12 11 9 9 8 7 6 6 5 4 4 3 3 4 4 3 3 3 3 3 4 3 3 3 3 4 5 5 4 5
13 12 10 10 9 9 9 9 12 14 14 13 13 13 12 10 10 9 8 7 6 5 5 4 4 4 4 4 4 4 4 3 3 3 3 4 4 4 5 5 5 5 5
13 12 12 11 8 8 8 9 10 12 14 14 13 13 12 11 10 9 9 8 7 6 6 5 5 5 4 5 5 4 4 4 4 3 4 4 4 4 5 5 5 5 5
14 12 12 12 9 7 7 9 10 11 12 14 14 13 13 13 12 11 11 10 8 8 7 6 5 5 5 5 5 4 4 4 4 4 4 4 4 5 4 4 4 5 5
13 12 12 12 9 7 8 8 8 9 11 12 13 13 14 14 14 12 12 11 10 9 8 7 6 6 5 5 5 5 4 5 5 5 5 4 5 5 5 4 4 4 5
13 12 11 11 10 8 8 8 9 9 10 11 12 14 15 15 15 14 13 12 12 11 10 9 8 7 7 6 6 5 5 5 5 5 5 5 5 5 5 5 5 4 4
13 11 11 11 10 9 8 8 9 9 10 10 11 12 14 15 15 14 14 14 14 13 12 11 10 9 8 7 7 6 6 6 5 6 6 5 5 5 5 5 5 4 4
12 11 11 11 11 10 9 8 8 9 10 11 11 12 13 13 14 15 15 15 15 14 14 13 12 11 10 9 8 8 7 7 7 6 5 6 5 5 5 5 6 6 6
12 11 11 11 10 10 9 8 8 8 9 10 11 12 13 13 14 14 15 15 15 16 15 14 14 13 12 11 10 10 10 9 9 8 7 7 6 6 6 6 7 7 7
12 12 11 10 10 9 9 9 8 8 10 10 11 12 13 14 15 15 15 15 16 16 16 15 15 14 13 13 13 12 12 11 11 11 10 9 9 8 8 9 9 9 10
13 12 11 10 9 9 9 8 7 7 9 10 11 11 12 13 14 15 15 16 16 16 17 17 17 16 15 14 14 14 14 14 14 13 13 12 12 12 12 12 12 13 13
Wind_Direction
163 161 162 164 163 164 168 174 177 179 179 178 174 171 165 161 156 152 148 143 139 137 134 132 129 126 121 119 113 109 106 102 108 113 101 93 90 90 101 108 114 111 110
175 169 169 169 167 167 176 184 186 192 192 187 182 178 172 164 158 155 151 146 142 139 136 134 132 130 123 123 120 116 111 106 107 122 109 102 98 92 106 114 117 111 115
193 184 187 186 188 188 190 193 196 201 200 194 190 184 177 169 164 160 153 150 145 141 137 133 133 133 126 126 127 127 121 109 108 127 116 114 111 107 114 118 113 117 124
216 211 212 207 205 203 201 202 205 207 207 203 197 191 186 176 168 163 159 155 151 144 135 133 136 135 132 131 131 127 126 123 125 131 112 126 120 113 119 122 118 123 125
226 228 232 224 218 215 214 215 216 215 214 211 203 196 194 183 173 166 165 160 155 149 141 139 141 138 137 140 143 139 135 137 131 131 126 129 127 122 122 126 125 128 129
254 240 241 232 224 222 223 225 226 225 224 219 212 209 202 192 179 176 174 164 158 156 152 144 142 136 139 144 143 142 141 135 122 138 144 132 127 124 124 130 134 135 137
282 258 246 235 227 222 221 224 227 228 227 223 218 217 213 202 194 189 181 169 160 158 156 153 148 142 143 145 142 143 148 147 151 166 145 141 136 130 125 142 144 146 153
286 261 252 237 227 223 221 221 223 225 226 226 227 225 219 210 204 196 187 177 166 162 160 154 152 146 152 157 151 141 143 154 164 185 194 177 156 147 145 151 154 161 174
299 267 258 246 234 225 222 222 225 228 230 232 232 232 228 224 216 208 199 191 177 167 167 161 160 150 151 157 145 137 141 152 168 182 207 209 200 182 177 178 197 200 196
316 289 269 248 238 227 224 224 225 229 231 233 236 238 237 230 224 220 212 201 192 187 184 176 174 167 156 150 145 139 144 151 169 174 203 217 219 220 232 241 233 222 206
326 308 284 261 241 231 227 227 226 227 230 233 237 239 241 237 231 230 225 212 205 199 192 186 185 177 172 166 161 152 142 145 192 200 198 217 232 243 251 254 252 240 216
329 317 296 267 248 238 230 228 227 226 229 233 237 239 241 241 237 231 231 226 218 210 200 198 198 187 182 180 186 179 159 172 198 235 230 239 250 258 259 256 257 250 227
330 317 307 281 256 246 233 228 228 227 229 232 237 238 239 241 241 233 227 228 226 220 214 208 204 199 209 205 204 213 208 194 208 246 252 259 265 266 262 263 263 256 244
331 324 312 290 272 257 243 231 229 230 229 233 237 237 239 240 243 238 227 225 224 224 226 223 212 209 223 221 217 238 244 243 245 259 251 254 262 268 262 264 267 259 253
334 323 316 298 285 269 257 242 230 229 230 231 235 237 237 241 244 243 232 228 227 226 235 242 240 229 232 228 235 245 246 238 253 261 264 260 265 272 268 263 266 260 257
337 329 321 304 285 280 266 248 236 230 232 230 233 235 237 240 241 242 242 243 243 234 237 247 250 246 237 235 233 241 246 245 255 256 264 271 272 276 277 273 267 264 256
338 335 324 318 295 276 263 254 241 233 231 230 232 234 235 237 239 241 245 245 248 246 249 252 257 258 247 241 243 247 247 247 251 255 258 265 269 280 281 280 268 265 263
334 334 331 326 304 278 266 257 249 235 229 230 231 234 234 235 238 241 244 248 251 250 254 257 259 258 256 251 252 252 249 245 248 257 259 265 276 286 285 282 270 267 268
325 326 327 330 316 287 270 268 254 243 233 228 229 233 234 235 238 241 244 248 252 253 255 258 257 255 259 255 254 254 252 254 256 260 260 265 275 282 286 282 273 269 269
320 320 321 325 323 297 278 270 256 242 233 229 230 232 234 234 237 241 245 249 252 252 254 257 259 259 259 254 254 257 256 259 262 262 264 266 273 273 279 279 281 280 273
317 315 313 318 321 312 291 269 253 239 236 232 231 230 232 234 235 239 244 248 249 251 255 257 258 259 261 257 258 260 259 260 265 266 263 265 265 267 273 276 278 280 281
315 311 308 309 312 309 296 276 255 246 242 238 232 228 229 232 233 238 242 247 249 251 252 254 257 258 259 260 260 262 260 261 261 265 267 265 265 269 273 271 269 270 280
313 308 304 303 304 304 294 277 259 249 240 241 235 229 228 232 236 241 247 249 250 249 249 250 253 254 256 257 259 260 258 258 262 262 264 266 266 272 271 273 273 274 276
312 307 303 300 299 299 290 280 265 252 247 241 238 236 234 236 238 238 243 250 250 249 248 248 250 253 254 257 258 258 259 258 259 262 266 269 272 271 271 275 274 279 280
312 307 303 302 297 295 290 286 272 258 248 243 240 240 237 238 239 242 248 249 250 249 247 248 249 252 254 257 259 258 259 259 261 262 265 268 270 270 271 274 275 277 280
310 306 302 302 299 293 293 289 274 260 251 245 240 237 239 240 242 247 251 250 250 250 250 251 253 254 254 256 258 259 260 261 263 264 265 266 269 271 272 273 275 277 278
Height
5879 5880 5881 5882 5883 5884 5885 5885 5886 5887 5887 5887 5887 5887 5887 5887 5887 5887 5888 5888 5888 5888 5889 5889 5889 5889 5890 5890 5890 5891 5891 5891 5892 5892 5892 5892 5893 5893 5894 5894 5894 5895 5896
5881 5881 5882 5883 5884 5885 5886 5886 5887 5887 5888 5888 5888 5888 5888 5888 5888 5888 5888 5888 5889 5889 5889 5890 5890 5890 5890 5891 5891 5891 5892 5892 5892 5892 5893 5893 5894 5894 5894 5895 5895 5896 5897
5881 5882 5882 5883 5884 5885 5886 5887 5887 5888 5888 5888 5888 5889 5889 5889 5889 5889 5889 5889 5889 5889 5890 5890 5890 5891 5891 5891 5892 5892 5892 5893 5893 5893 5893 5894 5894 5895 5895 5896 5896 5897 5898
5882 5882 5883 5884 5885 5886 5886 5887 5888 5888 5889 5889 5889 5889 5889 5889 5889 5889 5889 5889 5890 5890 5890 5890 5891 5891 5891 5892 5892 5892 5893 5893 5894 5894 5894 5894 5895 5896 5896 5897 5897 5898 5899
5882 5883 5883 5884 5885 5886 5887 5887 5888 5889 5889 5889 5890 5890 5890 5890 5890 5890 5890 5890 5890 5890 5890 5891 5891 5891 5892 5892 5892 5893 5893 5894 5894 5894 5895 5895 5896 5896 5897 5898 5898 5899 5900
5882 5882 5883 5884 5885 5885 5886 5887 5888 5889 5889 5890 5890 5890 5890 5890 5890 5890 5890 5890 5891 5891 5891 5891 5892 5892 5892 5892 5893 5893 5894 5894 5895 5895 5896 5896 5897 5897 5898 5898 5899 5900 5900
5882 5882 5882 5883 5884 5885 5886 5887 5888 5889 5889 5890 5890 5890 5890 5890 5891 5891 5891 5891 5891 5891 5891 5892 5892 5892 5893 5893 5893 5893 5894 5895 5896 5896 5896 5897 5897 5898 5898 5899 5899 5900 5901
5881 5881 5881 5882 5883 5884 5885 5886 5887 5888 5889 5890 5890 5890 5891 5891 5891 5891 5891 5891 5891 5892 5892 5892 5892 5893 5893 5893 5893 5894 5894 5895 5896 5896 5897 5897 5898 5898 5899 5899 5900 5900 5901
5880 5879 5880 5881 5882 5883 5884 5886 5887 5888 5889 5889 5890 5890 5890 5891 5891 5891 5891 5891 5891 5892 5892 5892 5893 5893 5893 5893 5894 5894 5895 5896 5896 5897 5897 5897 5898 5899 5899 5900 5900 5901 5901
5879 5879 5878 5879 5881 5882 5883 5884 5886 5887 5888 5889 5889 5890 5890 5891 5891 5891 5891 5891 5892 5892 5892 5893 5893 5893 5894 5894 5894 5895 5895 5896 5896 5897 5897 5897 5898 5899 5900 5900 5901 5901 5902
5877 5877 5877 5878 5879 5880 5882 5883 5884 5885 5887 5888 5889 5889 5890 5890 5891 5891 5891 5892 5892 5892 5893 5893 5893 5893 5894 5894 5895 5895 5896 5896 5896 5897 5897 5898 5898 5899 5900 5900 5901 5901 5902
5877 5876 5876 5877 5878 5879 5880 5881 5883 5884 5885 5886 5887 5888 5889 5890 5890 5891 5891 5892 5892 5893 5893 5893 5893 5894 5894 5894 5895 5895 5896 5896 5896 5897 5897 5898 5898 5899 5899 5900 5901 5901 5902
5876 5875 5875 5875 5876 5877 5878 5879 5881 5883 5884 5885 5886 5887 5888 5889 5890 5890 5891 5892 5892 5893 5893 5893 5893 5894 5894 5895 5895 5895 5895 5895 5896 5897 5897 5898 5898 5898 5899 5900 5900 5901 5901
5876 5874 5873 5874 5874 5874 5875 5877 5879 5881 5882 5884 5885 5886 5887 5888 5889 5890 5891 5892 5892 5893 5893 5894 5894 5894 5894 5895 5895 5895 5896 5895 5896 5897 5897 5897 5897 5898 5898 5899 5899 5900 5901
5875 5873 5872 5872 5871 5872 5873 5874 5876 5878 5880 5882 5883 5885 5886 5888 5889 5890 5890 5891 5892 5893 5893 5894 5894 5894 5894 5894 5895 5895 5895 5895 5896 5896 5896 5896 5897 5897 5898 5898 5899 5899 5900
5874 5872 5871 5870 5870 5870 5870 5871 5874 5876 5878 5880 5882 5883 5885 5886 5888 5889 5890 5891 5892 5892 5893 5893 5894 5894 5894 5894 5895 5895 5895 5895 5895 5895 5895 5896 5896 5897 5897 5898 5898 5898 5899
5873 5871 5870 5869 5868 5868 5868 5869 5871 5873 5876 5878 5880 5882 5883 5885 5887 5888 5889 5890 5891 5892 5893 5893 5893 5893 5894 5894 5894 5894 5894 5894 5895 5895 5895 5895 5896 5896 5896 5897 5897 5897 5898
5872 5871 5869 5868 5866 5866 5867 5867 5869 5871 5873 5876 5878 5880 5882 5884 5885 5887 5888 5889 5891 5891 5892 5892 5893 5893 5893 5893 5894 5894 5894 5894 5894 5894 5895 5895 5895 5895 5895 5896 5896 5896 5897
5872 5870 5869 5867 5866 5865 5865 5866 5867 5869 5871 5873 5875 5877 5880 5882 5883 5885 5887 5888 5889 5890 5891 5892 5892 5892 5893 5893 5893 5893 5893 5893 5893 5894 5894 5894 5894 5894 5895 5895 5895 5895 5896
5871 5869 5868 5866 5865 5864 5864 5864 5865 5867 5868 5870 5873 5875 5877 5879 5881 5883 5885 5887 5888 5889 5890 5891 5891 5892 5892 5892 5893 5893 5893 5893 5893 5893 5893 5893 5893 5894 5894 5894 5894 5894 5895
5869 5867 5867 5865 5865 5863 5863 5863 5864 5865 5866 5868 5871 5872 5875 5877 5879 5881 5883 5885 5886 5888 5889 5889 5890 5891 5891 5891 5892 5892 5892 5892 5892 5892 5892 5892 5892 5892 5893 5893 5893 5893 5893
5867 5866 5865 5865 5864 5863 5862 5862 5862 5863 5865 5867 5868 5870 5872 5874 5877 5879 5881 5883 5884 5886 5887 5888 5888 5889 5890 5890 5890 5891 5891 5892 5891 5891 5891 5891 5891 5891 5892 5892 5892 5892 5892
5866 5865 5864 5863 5863 5862 5861 5861 5861 5861 5863 5865 5866 5869 5871 5872 5874 5877 5878 5880 5882 5883 5885 5886 5886 5887 5888 5888 5889 5890 5890 5890 5890 5890 5890 5890 5890 5890 5891 5891 5891 5891 5891
5865 5864 5863 5862 5861 5860 5860 5859 5859 5860 5861 5862 5864 5866 5868 5870 5872 5874 5876 5877 5879 5881 5882 5883 5884 5885 5886 5886 5887 5887 5888 5888 5889 5889 5889 5889 5889 5889 5889 5890 5890 5890 5889
5863 5862 5861 5861 5860 5859 5858 5857 5857 5858 5859 5860 5862 5864 5866 5868 5870 5871 5873 5874 5876 5878 5879 5880 5881 5882 5883 5884 5884 5885 5886 5886 5886 5887 5887 5887 5887 5887 5888 5888 5888 5887 5887
5862 5861 5860 5859 5858 5858 5857 5856 5856 5856 5857 5858 5860 5861 5863 5865 5867 5868 5870 5871 5872 5874 5876 5877 5878 5879 5880 5881 5881 5882 5883 5883 5884 5884 5884 5885 5885 5885 5885 5885 5885 5884 5884